Flagstaff, Arizona, United States (86001)
Lat: 35.20N, Lon: 111.65W
Wx Zone: AZZ015
Local Info
Past Weather Observations for Wednesday, November 19, 2014

NOTE: This archive is for the closest National Weather Service station to Flagstaff. Information may differ from the station used for current weather conditions.

Click here for Long-term Archive

Time Weather Temperature Dewpoint Humidity Pressure Winds Precip Visibility
23:57
Overcast
30°F / -1°C 9°F / -13°C 40% 30.18 in
(1022 mb)
Calm - 10SM
22:57
Mostly Cloudy
28°F / -2°C 5°F / -15°C 37% 30.21 in
(1023 mb)
Calm - 10SM
21:57
Clear
28°F / -2°C 3°F / -16°C 34% 30.18 in
(1022 mb)
Calm - 10SM
20:57
Mostly Cloudy
30°F / -1°C 3°F / -16°C 31% 30.18 in
(1022 mb)
Calm - 10SM
19:57
Partly Cloudy
36°F / 2°C 5°F / -15°C 27% 30.18 in
(1022 mb)
Calm - 10SM
18:57
Mostly Cloudy
43°F / 6°C 1°F / -17°C 17% 30.21 in
(1023 mb)
SSW 4.6 mph
(SSW 7 kph)
- 10SM
17:57
Partly Cloudy
37°F / 3°C 3°F / -16°C 23% 30.18 in
(1022 mb)
SW 8.1 mph
(SW 13 kph)
- 10SM
16:57
Partly Cloudy
46°F / 8°C 1°F / -17°C 15% 30.18 in
(1022 mb)
SW 8.1 mph
(SW 13 kph)
- 10SM
15:57
Clear
50°F / 10°C 1°F / -17°C 13% 30.18 in
(1022 mb)
SW 11.5 mph
(SW 19 kph)
- 10SM
14:57
Mostly Cloudy
52°F / 11°C 1°F / -17°C 12% 30.18 in
(1022 mb)
SSE 12.7 mph
(SSE 20 kph)
- 10SM
13:57
Clear
54°F / 12°C -2°F / -19°C 10% 30.18 in
(1022 mb)
SW 11.5 mph
(SW 19 kph)
- 10SM
12:57
Clear
52°F / 11°C °F / -18°C 11% 30.21 in
(1023 mb)
S 11.5 mph
(S 19 kph)
- 10SM
11:57
Clear
54°F / 12°C -2°F / -19°C 10% 30.24 in
(1024 mb)
SW 12.7 mph
(SW 20 kph)
- 10SM
10:57
Clear
50°F / 10°C °F / -18°C 12% 30.27 in
(1025 mb)
SW 9.2 mph
(SW 15 kph)
- 10SM
09:57
Clear
46°F / 8°C 1°F / -17°C 15% 30.27 in
(1025 mb)
SW 6.9 mph
(SW 11 kph)
- 10SM
08:57
Clear
34°F / 1°C 10°F / -12°C 38% 30.27 in
(1025 mb)
Calm - 10SM
07:57
Clear
23°F / -5°C 9°F / -13°C 54% 30.27 in
(1025 mb)
Calm - 10SM
06:57
Clear
18°F / -8°C 5°F / -15°C 58% 30.27 in
(1025 mb)
Calm - 10SM
05:57
Clear
18°F / -8°C 7°F / -14°C 62% 30.27 in
(1025 mb)
Calm - 10SM
04:57
Clear
19°F / -7°C 7°F / -14°C 58% 30.27 in
(1025 mb)
Calm - 10SM
03:57
Clear
18°F / -8°C 7°F / -14°C 62% 30.27 in
(1025 mb)
Calm - 10SM
02:57
Clear
14°F / -10°C 3°F / -16°C 62% 30.27 in
(1025 mb)
Calm - 10SM
01:57
Clear
16°F / -9°C 3°F / -16°C 57% 30.3 in
(1026 mb)
Calm - 10SM
00:57
Clear
16°F / -9°C 3°F / -16°C 57% 30.3 in
(1026 mb)
NE 3.5 mph
(NE 6 kph)
- 10SM
Time Weather Temperature Dewpoint Humidity Pressure Winds Precip Visibility


Weather for websites

WeatherForYou.com, LLC is not responsible for any damages or problems caused by this service. Current weather conditions are obtained from the closest station including government and personal stations which may have varying degrees of accuracy. Weather forecasts are derived from the NOAA NDFD. Like all things, this site belongs to Jesus Christ... He just trusts me to maintain it. If you have any questions or comments email webmaster@weatherforyou.com

Copyright © 2014, WeatherForYou.com LLC. All rights reserved.